Date String (YYYY-MM-DD hh:mm:ss) UTC,Instrument flags,Ambient pressure (hPa),Sample flow (lpm),Bypass flow (lpm),Sample temperature (°C),Ambient temperature (°C),ASC tube jacket temperature (°C),LED temperature (°C),Box temperature (°C),Sample RH (%),Span deviation,Mass concentration (μg/m³),Mass concentration (μg/m³),Mass concentration (μg/m³)
DateTimeUTC,F1_M11,P_M11,Q1_M11,Q2_M11,T1_M11,T2_M11,T3_M11,T4_M11,T5_M11,U1_M11,ZSPAN_M11,X0_M11,X2_M11,X1_M11
2022-05-17 03:00:00,,0821.7,5.01,0.00,29.0,27.3,00.0,38.1,30.8,14.7,0000.0,0011.13,0004.84,0003.62
2022-05-17 03:01:00,,0821.8,4.99,0.00,29.1,27.5,00.0,38.1,30.9,14.7,0000.0,0011.84,0004.82,0003.59
2022-05-17 03:02:00,,0821.8,5.00,0.00,29.1,27.7,00.0,38.1,30.9,14.8,0000.0,0012.33,0004.86,0003.56
2022-05-17 03:03:00,,0821.8,5.00,0.00,29.1,27.8,00.0,38.1,30.9,14.8,0000.0,0012.25,0004.82,0003.53
2022-05-17 03:04:00,,0821.8,4.99,0.00,29.1,27.9,00.0,38.1,30.9,15.0,0000.0,0011.33,0004.77,0003.51
2022-05-17 03:05:00,,0821.9,5.00,0.00,29.1,28.0,00.0,38.1,31.0,14.9,0000.0,0011.34,0004.75,0003.50
2022-05-17 03:06:00,,0821.8,5.01,0.00,29.2,28.1,00.0,38.1,31.0,14.9,0000.0,0011.65,0004.74,0003.50
2022-05-17 03:07:00,,0821.8,5.00,0.00,29.2,28.1,00.0,38.1,31.0,14.8,0000.0,0011.91,0004.77,0003.50
2022-05-17 03:08:00,,0821.8,5.00,0.00,29.2,28.2,00.0,38.2,31.1,14.7,0000.0,0012.35,0004.78,0003.48
2022-05-17 03:09:00,,0821.8,5.00,0.00,29.3,28.2,00.0,38.2,31.1,14.8,0000.0,0013.37,0004.80,0003.48
2022-05-17 03:10:00,,0821.8,5.00,0.00,29.3,28.3,00.0,38.2,31.2,14.7,0000.0,0013.93,0004.77,0003.46
2022-05-17 03:11:00,,0821.8,5.00,0.00,29.3,28.3,00.0,38.2,31.2,14.6,0000.0,0013.59,0004.78,0003.46
2022-05-17 03:12:00,,0821.8,5.00,0.00,29.4,28.2,00.0,38.2,31.2,14.4,0000.0,0012.79,0004.79,0003.45
2022-05-17 03:13:00,,0822.1,5.01,0.00,29.3,26.3,00.0,38.2,30.9,14.3,0000.0,0012.57,0004.78,0003.44
2022-05-17 03:14:00,,0822.0,4.99,0.00,29.2,25.1,00.0,38.2,30.7,14.4,0000.0,0012.43,0004.75,0003.44
2022-05-17 03:15:00,,0822.0,5.00,0.00,29.1,25.3,00.0,38.1,30.6,14.5,0000.0,0012.55,0004.71,0003.41
2022-05-17 03:16:00,,0821.8,5.00,0.00,29.0,25.7,00.0,38.1,30.5,14.6,0000.0,0013.13,0004.68,0003.39
2022-05-17 03:17:00,,0821.9,4.99,0.00,29.0,26.1,00.0,38.1,30.6,14.7,0000.0,0012.78,0004.64,0003.37
2022-05-17 03:18:00,,0821.9,5.00,0.00,29.0,26.5,00.0,38.1,30.6,14.7,0000.0,0012.48,0004.59,0003.35
2022-05-17 03:19:00,,0822.0,5.00,0.00,29.0,26.8,00.0,38.1,30.7,14.7,0000.0,0012.18,0004.58,0003.34
2022-05-17 03:20:00,,0822.0,5.01,0.00,29.0,27.1,00.0,38.1,30.8,14.6,0000.0,0011.37,0004.58,0003.33
2022-05-17 03:21:00,,0822.0,5.00,0.00,29.0,27.3,00.0,38.1,30.8,14.5,0000.0,0011.20,0004.57,0003.32
2022-05-17 03:22:00,,0822.0,5.01,0.00,29.0,27.5,00.0,38.1,30.8,14.6,0000.0,0011.67,0004.57,0003.30
2022-05-17 03:23:00,,0822.0,5.00,0.00,29.1,27.6,00.0,38.1,30.9,14.7,0000.0,0012.16,0004.56,0003.29
2022-05-17 03:24:00,,0822.0,5.00,0.00,29.1,27.7,00.0,38.1,30.9,14.9,0000.0,0012.23,0004.55,0003.29
2022-05-17 03:25:00,,0822.0,5.00,0.00,29.1,27.9,00.0,38.1,30.9,14.8,0000.0,0012.50,0004.55,0003.29
2022-05-17 03:26:00,,0822.0,5.00,0.00,29.1,27.9,00.0,38.1,31.0,14.7,0000.0,0012.49,0004.55,0003.29
2022-05-17 03:27:00,,0822.0,5.00,0.00,29.2,28.0,00.0,38.1,31.0,14.7,0000.0,0011.68,0004.56,0003.30
2022-05-17 03:28:00,,0822.0,5.00,0.00,29.2,28.1,00.0,38.1,31.0,14.5,0000.0,0011.81,0004.55,0003.30
2022-05-17 03:29:00,,0821.9,5.00,0.00,29.2,28.1,00.0,38.2,31.0,14.4,0000.0,0012.13,0004.52,0003.30
2022-05-17 03:30:00,,0821.9,5.01,0.00,29.2,28.2,00.0,38.2,31.1,14.4,0000.0,0012.01,0004.47,0003.29
2022-05-17 03:31:00,,0821.9,4.99,0.00,29.3,28.2,00.0,38.2,31.1,14.3,0000.0,0011.71,0004.40,0003.27
2022-05-17 03:32:00,,0821.8,5.00,0.00,29.3,28.3,00.0,38.2,31.1,14.2,0000.0,0011.03,0004.37,0003.27
2022-05-17 03:33:00,,0821.8,4.99,0.00,29.3,28.3,00.0,38.2,31.2,14.3,0000.0,0010.56,0004.31,0003.27
2022-05-17 03:34:00,,0821.8,5.01,0.00,29.3,28.4,00.0,38.3,31.2,14.2,0000.0,0010.16,0004.24,0003.25
2022-05-17 03:35:00,,0822.0,5.01,0.00,29.4,28.4,00.0,38.3,31.2,14.2,0000.0,0010.01,0004.20,0003.24
2022-05-17 03:36:00,,0821.8,5.01,0.00,29.4,28.4,00.0,38.3,31.3,14.3,0000.0,0009.69,0004.17,0003.23
2022-05-17 03:37:00,,0821.9,4.99,0.00,29.4,28.5,00.0,38.3,31.3,14.2,0000.0,0009.99,0004.15,0003.23
2022-05-17 03:38:00,,0821.8,5.00,0.00,29.4,27.8,00.0,38.3,31.2,14.1,0000.0,0010.06,0004.14,0003.21
2022-05-17 03:39:00,,0821.8,5.01,0.00,29.3,25.4,00.0,38.3,30.8,14.2,0000.0,0009.95,0004.14,0003.20
2022-05-17 03:40:00,,0821.9,4.99,0.00,29.2,25.0,00.0,38.2,30.6,14.3,0000.0,0009.89,0004.12,0003.19
2022-05-17 03:41:00,,0821.8,5.00,0.00,29.1,25.3,00.0,38.2,30.6,14.3,0000.0,0009.99,0004.13,0003.18
2022-05-17 03:42:00,,0821.8,4.99,0.00,29.1,25.8,00.0,38.2,30.6,14.3,0000.0,0010.67,0004.15,0003.18
2022-05-17 03:43:00,,0821.8,5.01,0.00,29.0,26.2,00.0,38.2,30.6,14.2,0000.0,0010.72,0004.13,0003.16
2022-05-17 03:44:00,,0821.9,5.01,0.00,29.0,26.5,00.0,38.1,30.7,14.2,0000.0,0010.47,0004.12,0003.15
2022-05-17 03:45:00,,0821.9,5.00,0.00,29.0,26.9,00.0,38.1,30.8,14.2,0000.0,0010.26,0004.12,0003.15
2022-05-17 03:46:00,,0822.0,5.00,0.00,29.0,27.1,00.0,38.1,30.8,14.2,0000.0,0010.12,0004.06,0003.15
2022-05-17 03:47:00,,0822.0,5.00,0.00,29.1,27.3,00.0,38.1,30.8,14.2,0000.0,0011.00,0004.04,0003.13
2022-05-17 03:48:00,,0821.8,5.01,0.00,29.1,27.5,00.0,38.1,30.9,14.3,0000.0,0010.94,0004.02,0003.11
2022-05-17 03:49:00,,0821.9,5.00,0.00,29.1,27.6,00.0,38.1,30.9,14.3,0000.0,0010.82,0004.03,0003.10
2022-05-17 03:50:00,,0822.0,5.01,0.00,29.1,27.8,00.0,38.1,30.9,14.3,0000.0,0011.15,0004.04,0003.07
2022-05-17 03:51:00,,0822.0,4.99,0.00,29.1,27.8,00.0,38.1,30.9,14.1,0000.0,0010.83,0004.01,0003.04
2022-05-17 03:52:00,,0822.0,4.99,0.00,29.1,27.9,00.0,38.1,31.0,14.1,0000.0,0010.85,0003.97,0003.02
2022-05-17 03:53:00,,0822.1,5.00,0.00,29.2,28.0,00.0,38.2,31.0,14.2,0000.0,0010.27,0003.99,0003.03
2022-05-17 03:54:00,,0822.1,5.01,0.00,29.2,28.1,00.0,38.2,31.0,14.1,0000.0,0010.31,0003.99,0003.03
2022-05-17 03:55:00,,0822.1,5.00,0.00,29.2,28.1,00.0,38.2,31.1,14.0,0000.0,0010.74,0003.98,0003.00
2022-05-17 03:56:00,,0822.1,5.00,0.00,29.3,28.2,00.0,38.2,31.1,14.0,0000.0,0010.81,0003.99,0002.99
2022-05-17 03:57:00,,0822.1,5.00,0.00,29.3,28.2,00.0,38.2,31.1,14.1,0000.0,0010.66,0003.98,0002.95
2022-05-17 03:58:00,,0822.1,5.00,0.00,29.3,28.3,00.0,38.2,31.2,14.1,0000.0,0009.69,0003.95,0002.92
2022-05-17 03:59:00,,0822.1,5.01,0.00,29.3,28.3,00.0,38.3,31.2,14.1,0000.0,0009.85,0003.97,0002.91
